Flag for India Weather past 2 weeks in Jaipur, Rajasthan, India

Now
88 °F

Passing clouds.


Feels Like: 96 °F
Forecast: 81 / 95 °F
Wind: 2 mph from West

Location: Jaipur / Sanganer

Current Time: Aug 30, 2015 at 1:11:45 AM

Latest Report: Aug 29, 2015 at 11:00 PM


Visibility: 2 mi

Pressure: 29.68 "Hg

Humidity: 62%

Dew point: 73 °F

Location of JaipurLocation

Historic Weather in Jaipur — Graph

°F

Jaipur temperature yesterday

Maximum temperature yesterday: 99 °F (at 5:00 PM)
Minimum temperature yesterday: 84 °F (at 5:00 AM)
Average temperature yesterday: 90 °F

Past Weeks' High & Low Weather Summary

 TemperatureHumidityPressure
High99 °F (Aug 28, 3:00 PM)100% (Aug 15, 2:00 AM)29.95 "Hg (Aug 15, 2:00 AM)
Low77 °F (Aug 16, 2:00 AM)39% (Aug 29, 5:00 PM)29.62 "Hg (Aug 17, 4:00 PM)
Average85 °F71%29.70 "Hg
* Reported Aug 14 11:00 PM — Aug 29 11:00 PM, Jaipur, Weather by CustomWeather, © 2015

Note: Actual official high and low records may vary slightly from our data, if they occured in-between our weather recording intervals... More about our weather records

Advertising

Jaipur weather history for previous 24 hours

 ConditionsComfort  
Time TempWeatherWind HumidityBarometerVisibility
11:00 PM
Sat, Aug 29
88 °FPassing clouds.2 mph62%29.68 "Hg2 mi
10:00 PM88 °FPassing clouds.5 mph62%29.68 "Hg2 mi
9:00 PM90 °FPassing clouds.5 mph55%29.68 "Hg2 mi
8:00 PM91 °FPassing clouds.6 mph52%29.65 "Hg2 mi
7:30 PM91 °FPassing clouds.6 mph52%29.62 "Hg2 mi
7:00 PM91 °FScattered clouds.5 mph56%29.62 "Hg2 mi
6:00 PM95 °FScattered clouds.6 mph47%29.62 "Hg2 mi
5:00 PM99 °FScattered clouds.6 mph39%29.62 "Hg2 mi
4:30 PM97 °FScattered clouds.7 mph42%29.62 "Hg2 mi
3:00 PM93 °FScattered clouds.3 mph53%29.65 "Hg2 mi
1:00 PM93 °FHaze.3 mph53%29.71 "Hg2 mi
11:00 AM91 °FScattered clouds.2 mph52%29.74 "Hg2 mi
10:00 AM88 °FScattered clouds.2 mph59%29.74 "Hg2 mi
9:00 AM84 °FScattered clouds.5 mph74%29.68 "Hg2 mi
8:00 AM84 °FScattered clouds.8 mph79%29.71 "Hg2 mi
7:00 AM84 °FScattered clouds.7 mph74%29.68 "Hg2 mi
6:00 AM84 °FPassing clouds.5 mph74%29.68 "Hg2 mi
5:00 AM84 °FPassing clouds.3 mph74%29.68 "Hg2 mi
Weather by CustomWeather, © 2015

See weather overviewHow to use our weather pages